TimeEDT,TemperatureF,Dew PointF,Humidity,Sea Level PressureIn,VisibilityMPH,Wind Direction,Wind SpeedMPH,Gust SpeedMPH,PrecipitationIn,Events,Conditions,WindDirDegrees,DateUTC
12:15 AM,69.8,66.2,88,30.17,10.0,Calm,Calm,-,N/A,,Clear,0,2013-07-30 04:15:00
12:35 AM,69.8,66.2,88,30.17,10.0,Calm,Calm,-,N/A,,Clear,0,2013-07-30 04:35:00
12:55 AM,71.6,66.2,83,30.18,10.0,Calm,Calm,-,N/A,,Clear,0,2013-07-30 04:55:00
1:15 AM,69.8,66.2,88,30.17,10.0,Calm,Calm,-,N/A,,Clear,0,2013-07-30 05:15:00
1:35 AM,68.0,64.4,88,30.17,7.0,Calm,Calm,-,N/A,,Clear,0,2013-07-30 05:35:00
1:55 AM,68.0,64.4,88,30.17,6.0,Calm,Calm,-,N/A,,Clear,0,2013-07-30 05:55:00
2:15 AM,68.0,64.4,88,30.17,5.0,Calm,Calm,-,N/A,,Clear,0,2013-07-30 06:15:00
2:35 AM,68.0,64.4,88,30.17,4.0,Calm,Calm,-,N/A,,Clear,0,2013-07-30 06:35:00
2:55 AM,66.2,62.6,88,30.17,1.0,Calm,Calm,-,N/A,,Clear,0,2013-07-30 06:55:00
3:15 AM,66.2,62.6,88,30.17,1.5,Calm,Calm,-,N/A,,Clear,0,2013-07-30 07:15:00
3:35 AM,64.4,62.6,94,30.17,2.5,Calm,Calm,-,N/A,,Clear,0,2013-07-30 07:35:00
3:55 AM,66.2,62.6,88,30.17,2.5,Calm,Calm,-,N/A,,Clear,0,2013-07-30 07:55:00
4:15 AM,66.2,62.6,88,30.17,1.0,Calm,Calm,-,N/A,,Clear,0,2013-07-30 08:15:00
4:35 AM,64.4,60.8,88,30.17,1.0,Calm,Calm,-,N/A,,Clear,0,2013-07-30 08:35:00
4:55 AM,64.4,62.6,94,30.17,4.0,Calm,Calm,-,N/A,,Clear,0,2013-07-30 08:55:00
5:15 AM,64.4,60.8,88,30.18,3.0,Calm,Calm,-,N/A,,Clear,0,2013-07-30 09:15:00
5:35 AM,64.4,62.6,94,30.18,0.8,Calm,Calm,-,N/A,,Unknown,0,2013-07-30 09:35:00
5:55 AM,64.4,60.8,88,30.19,4.0,Calm,Calm,-,N/A,,Clear,0,2013-07-30 09:55:00
6:15 AM,64.4,60.8,88,30.20,7.0,Calm,Calm,-,N/A,,Clear,0,2013-07-30 10:15:00
6:35 AM,64.4,60.8,88,30.20,6.0,Calm,Calm,-,N/A,,Clear,0,2013-07-30 10:35:00
6:55 AM,64.4,60.8,88,30.21,9.0,Calm,Calm,-,N/A,,Clear,0,2013-07-30 10:55:00
7:15 AM,64.4,62.6,94,30.22,10.0,Calm,Calm,-,N/A,,Clear,0,2013-07-30 11:15:00
7:35 AM,66.2,62.6,88,30.22,10.0,Calm,Calm,-,N/A,,Clear,0,2013-07-30 11:35:00
7:55 AM,66.2,60.8,83,30.22,10.0,Calm,Calm,-,N/A,,Clear,0,2013-07-30 11:55:00
8:15 AM,66.2,60.8,83,30.23,10.0,Calm,Calm,-,N/A,,Clear,0,2013-07-30 12:15:00
8:35 AM,69.8,62.6,78,30.23,10.0,NE,3.5,-,N/A,,Clear,50,2013-07-30 12:35:00
8:55 AM,71.6,62.6,73,30.22,10.0,Calm,Calm,-,N/A,,Clear,0,2013-07-30 12:55:00
9:15 AM,73.4,60.8,65,30.22,10.0,NE,6.9,-,N/A,,Clear,50,2013-07-30 13:15:00
9:35 AM,73.4,60.8,65,30.22,10.0,ENE,4.6,-,N/A,,Clear,60,2013-07-30 13:35:00
9:55 AM,75.2,60.8,61,30.22,10.0,NE,5.8,-,N/A,,Clear,40,2013-07-30 13:55:00
10:15 AM,78.8,60.8,54,30.22,10.0,ENE,9.2,-,N/A,,Clear,60,2013-07-30 14:15:00
10:35 AM,78.8,60.8,54,30.22,10.0,East,6.9,-,N/A,,Clear,100,2013-07-30 14:35:00
10:55 AM,80.6,60.8,51,30.22,10.0,ENE,9.2,-,N/A,,Clear,70,2013-07-30 14:55:00
11:15 AM,80.6,60.8,51,30.22,10.0,East,8.1,-,N/A,,Clear,80,2013-07-30 15:15:00
11:35 AM,82.4,60.8,48,30.22,10.0,East,5.8,-,N/A,,Clear,90,2013-07-30 15:35:00
11:55 AM,82.4,59.0,45,30.22,10.0,East,6.9,-,N/A,,Clear,90,2013-07-30 15:55:00
12:15 PM,82.4,59.0,45,30.21,10.0,ENE,5.8,-,N/A,,Partly Cloudy,70,2013-07-30 16:15:00
12:35 PM,84.2,59.0,42,30.21,10.0,ENE,6.9,-,N/A,,Clear,70,2013-07-30 16:35:00
12:55 PM,82.4,59.0,45,30.20,10.0,ENE,5.8,-,N/A,,Partly Cloudy,60,2013-07-30 16:55:00
1:15 PM,84.2,59.0,42,30.20,10.0,East,6.9,-,N/A,,Mostly Cloudy,80,2013-07-30 17:15:00
1:35 PM,84.2,60.8,45,30.20,10.0,NE,6.9,-,N/A,,Mostly Cloudy,50,2013-07-30 17:35:00
1:55 PM,84.2,59.0,42,30.19,10.0,Calm,Calm,-,N/A,,Partly Cloudy,0,2013-07-30 17:55:00
2:15 PM,86.0,62.6,45,30.18,10.0,NNE,5.8,-,N/A,,Clear,30,2013-07-30 18:15:00
2:35 PM,86.0,60.8,43,30.17,10.0,NNE,8.1,-,N/A,,Clear,30,2013-07-30 18:35:00
2:55 PM,86.0,60.8,43,30.17,10.0,East,6.9,-,N/A,,Clear,90,2013-07-30 18:55:00
3:15 PM,86.0,60.8,43,30.16,10.0,East,6.9,-,N/A,,Clear,80,2013-07-30 19:15:00
3:35 PM,86.0,59.0,40,30.16,10.0,Calm,Calm,-,N/A,,Clear,0,2013-07-30 19:35:00
3:55 PM,86.0,60.8,43,30.16,10.0,NNE,3.5,-,N/A,,Clear,30,2013-07-30 19:55:00
4:15 PM,86.0,60.8,43,30.16,10.0,Calm,Calm,-,N/A,,Scattered Clouds,0,2013-07-30 20:15:00
4:35 PM,84.2,62.6,48,30.15,10.0,Calm,Calm,-,N/A,,Scattered Clouds,0,2013-07-30 20:35:00
4:55 PM,84.2,62.6,48,30.15,10.0,Calm,Calm,-,N/A,,Overcast,0,2013-07-30 20:55:00
5:15 PM,86.0,62.6,45,30.15,10.0,Calm,Calm,-,N/A,,Overcast,0,2013-07-30 21:15:00
5:35 PM,86.0,62.6,45,30.15,10.0,East,3.5,-,N/A,,Scattered Clouds,100,2013-07-30 21:35:00
5:55 PM,86.0,62.6,45,30.15,10.0,ENE,4.6,-,N/A,,Mostly Cloudy,60,2013-07-30 21:55:00
6:15 PM,84.2,62.6,48,30.15,10.0,NNE,3.5,-,N/A,,Overcast,30,2013-07-30 22:15:00
6:35 PM,84.2,62.6,48,30.15,10.0,Calm,Calm,-,N/A,,Scattered Clouds,0,2013-07-30 22:35:00
6:55 PM,82.4,64.4,54,30.15,10.0,NNE,4.6,-,N/A,,Clear,20,2013-07-30 22:55:00
7:15 PM,82.4,62.6,51,30.15,9.0,Calm,Calm,-,N/A,,Clear,0,2013-07-30 23:15:00
7:35 PM,80.6,64.4,58,30.15,9.0,Calm,Calm,-,N/A,,Clear,0,2013-07-30 23:35:00
7:55 PM,78.8,66.2,65,30.15,10.0,Calm,Calm,-,N/A,,Clear,0,2013-07-30 23:55:00
8:15 PM,77.0,66.2,69,30.15,10.0,Calm,Calm,-,N/A,,Clear,0,2013-07-31 00:15:00
8:35 PM,75.2,66.2,73,30.15,10.0,Calm,Calm,-,N/A,,Clear,0,2013-07-31 00:35:00
8:55 PM,75.2,66.2,73,30.15,10.0,Calm,Calm,-,N/A,,Clear,0,2013-07-31 00:55:00
9:15 PM,75.2,66.2,73,30.15,10.0,Calm,Calm,-,N/A,,Clear,0,2013-07-31 01:15:00
9:35 PM,73.4,66.2,78,30.16,10.0,Calm,Calm,-,N/A,,Partly Cloudy,0,2013-07-31 01:35:00
9:55 PM,73.4,66.2,78,30.16,10.0,Calm,Calm,-,N/A,,Clear,0,2013-07-31 01:55:00
10:15 PM,73.4,66.2,78,30.17,10.0,Calm,Calm,-,N/A,,Clear,0,2013-07-31 02:15:00
10:35 PM,73.4,66.2,78,30.17,10.0,Calm,Calm,-,N/A,,Clear,0,2013-07-31 02:35:00
10:55 PM,73.4,66.2,78,30.17,10.0,Calm,Calm,-,N/A,,Clear,0,2013-07-31 02:55:00
11:15 PM,71.6,66.2,83,30.16,10.0,Calm,Calm,-,N/A,,Clear,0,2013-07-31 03:15:00
11:35 PM,71.6,66.2,83,30.16,10.0,Calm,Calm,-,N/A,,Clear,0,2013-07-31 03:35:00
11:55 PM,71.6,66.2,83,30.16,10.0,Calm,Calm,-,N/A,,Clear,0,2013-07-31 03:55:00